Location: Berg
(47.2344°N, 9.5296°E)
Time: 00:51:48
(UTC+00:00)

Nauka - Pass Details

Date: 20 September 2021
Orbit: 417 x 423 km, 51.6° (Epoch: 19 October)

Event Time Altitude Azimuth Distance (km) Brightness Sun altitude
Rises 20:24:35 0° 279° (W) 2,365 ? -29.3°
Reaches altitude 10° 20:26:47 10° 288° (WNW) 1,502 ? -29.6°
Enters shadow 20:27:30 15° 294° (WNW) 1,235 ? -29.7°
